| time (UTC) | temp F | wind direction | speed MPH | gust MPH | rain 1hr in | rain 24hr in | rain mn in | humidity % | barometer mb |
| 20260506030817 | 72 | 42 | 0.0 | 5.0 | 0.00 | 0.00 | 0.00 | 49 | 1016.1 |
| 20260506023823 | 73 | 327 | 0.0 | 0.0 | 0.00 | 0.00 | 0.00 | 53 | 1016.1 |
| 20260506020847 | 74 | 327 | 0.0 | 0.0 | 0.00 | 0.00 | 0.00 | 57 | 1015.4 |
| 20260506013817 | 75 | 327 | 0.0 | 2.0 | 0.00 | 0.00 | 0.00 | 58 | 1015.4 |
| 20260506010825 | 76 | 327 | 1.0 | 2.0 | 0.00 | 0.00 | 0.00 | 58 | 1015.0 |
| 20260506003816 | 77 | 304 | 2.0 | 5.0 | 0.00 | 0.00 | 0.00 | 58 | 1014.7 |
| 20260506000821 | 78 | 292 | 0.0 | 4.0 | 0.00 | 0.00 | 0.00 | 56 | 1014.4 |
| 20260505233849 | 79 | 305 | 2.0 | 7.0 | 0.00 | 0.00 | 0.00 | 56 | 1014.1 |
| 20260505230833 | 80 | 280 | 4.0 | 11.0 | 0.00 | 0.00 | 0.00 | 55 | 1014.1 |
| 20260505223820 | 81 | 280 | 3.0 | 10.0 | 0.00 | 0.00 | 0.00 | 53 | 1014.1 |
| 20260505220822 | 83 | 316 | 3.0 | 10.0 | 0.00 | 0.00 | 0.00 | 52 | 1014.0 |
| 20260505213831 | 81 | 297 | 4.0 | 8.0 | 0.00 | 0.00 | 0.00 | 53 | 1013.9 |
| 20260505210819 | 82 | 260 | 5.0 | 10.0 | 0.00 | 0.00 | 0.00 | 52 | 1014.0 |
| 20260505203830 | 83 | 306 | 5.0 | 12.0 | 0.00 | 0.00 | 0.00 | 51 | 1014.0 |
| 20260505200818 | 83 | 298 | 8.0 | 13.0 | 0.00 | 0.00 | 0.00 | 51 | 1014.3 |
| 20260505193846 | 84 | 292 | 4.0 | 12.0 | 0.00 | 0.00 | 0.00 | 53 | 1014.4 |
| 20260505190833 | 85 | 286 | 3.0 | 10.0 | 0.00 | 0.00 | 0.00 | 50 | 1014.3 |
| 20260505183823 | 86 | 244 | 3.0 | 5.0 | 0.00 | 0.00 | 0.00 | 47 | 1014.6 |
| 20260505180850 | 84 | 261 | 0.0 | 7.0 | 0.00 | 0.00 | 0.00 | 47 | 1014.8 |
| 20260505173840 | 85 | 233 | 2.0 | 4.0 | 0.00 | 0.00 | 0.00 | 42 | 1015.1 |
| 20260505170824 | 86 | 90 | 2.0 | 6.0 | 0.00 | 0.01 | 0.00 | 43 | 1015.6 |
| 20260505163406 | 84 | 93 | 2.0 | 6.0 | 0.00 | 0.01 | 0.00 | 45 | 1015.7 |
| 20260505150813 | 80 | 145 | 3.0 | 7.0 | 0.00 | 0.01 | 0.00 | 50 | 1016.2 |
| 20260505123832 | 73 | 117 | 1.0 | 5.0 | 0.00 | 0.01 | 0.00 | 49 | 1015.4 |
| 20260505120820 | 0 | 0.0 | 0.0 | 0.00 | 0.01 | 0.00 | 1015.2 | ||
| 20260505120134 | 0 | 0.0 | 0.0 | 0.00 | 0.01 | 0.00 | 1015.2 |